EW5802 Weather Reports


Display with metric or nautical units.
time (UTC)temp
F
wind
direction
speed
MPH
gust
MPH
rain 1hr
in
rain 24hr
in
rain mn
in
humidity
%
barometer
mb
20181213065205 30 121 1.0 2.0 0.00 0.00 0.00 84 1023.6
20181213064705 30 121 0.0 1.0 0.00 0.00 0.00 83 1023.7
20181213064209 31 121 0.0 0.0 0.00 0.00 0.00 83 1024.0
20181213063707 31 121 0.0 2.0 0.00 0.00 0.00 83 1024.1
20181213063205 31 121 0.0 0.0 0.00 0.00 0.00 84 1024.0
20181213062705 30 121 0.0 0.0 0.00 0.00 0.00 84 1024.0
20181213062205 30 121 0.0 0.0 0.00 0.00 0.00 84 1023.9
20181213061705 30 121 0.0 0.0 0.00 0.00 0.00 85 1023.9
20181213061205 30 121 0.0 2.0 0.00 0.00 0.00 85 1023.8
20181213060707 30 121 2.0 3.0 0.00 0.00 0.00 86 1023.6
20181213060205 29 129 0.0 1.0 0.00 0.00 0.00 87 1023.6
20181213055705 29 129 0.0 0.0 0.00 0.00 0.00 86 1023.6
20181213055205 30 129 0.0 0.0 0.00 0.00 0.00 86 1023.5
20181213054705 30 129 1.0 2.0 0.00 0.00 0.00 84 1023.5
20181213054205 30 129 2.0 3.0 0.00 0.00 0.00 84 1023.4
20181213053704 30 130 1.0 3.0 0.00 0.00 0.00 84 1023.5
20181213053205 30 130 2.0 3.0 0.00 0.00 0.00 84 1023.5
20181213052705 30 129 1.0 2.0 0.00 0.00 0.00 84 1023.5
20181213052207 30 136 0.0 0.0 0.00 0.00 0.00 84 1023.6
20181213051705 30 136 0.0 1.0 0.00 0.00 0.00 84 1023.5
20181213051205 30 136 1.0 2.0 0.00 0.00 0.00 83 1023.6
20181213050709 30 136 1.0 3.0 0.00 0.00 0.00 83 1023.5
20181213050205 31 136 0.0 0.0 0.00 0.00 0.00 83 1023.5
20181213045705 31 136 1.0 2.0 0.00 0.00 0.00 82 1023.6
20181213045206 31 136 2.0 3.0 0.00 0.00 0.00 82 1023.3
20181213044705 31 113 1.0 3.0 0.00 0.00 0.00 82 1023.4
20181213044204 31 106 0.0 1.0 0.00 0.00 0.00 82 1023.4
20181213043704 31 106 0.0 0.0 0.00 0.00 0.00 82 1023.4
20181213043206 31 106 0.0 0.0 0.00 0.00 0.00 82 1023.3
20181213042705 31 106 0.0 0.0 0.00 0.00 0.00 82 1023.3
20181213042207 30 106 0.0 0.0 0.00 0.00 0.00 83 1023.4
20181213041705 30 106 0.0 0.0 0.00 0.00 0.00 84 1023.5
20181213041204 31 106 0.0 0.0 0.00 0.00 0.00 83 1023.5
20181213040705 31 106 0.0 0.0 0.00 0.00 0.00 82 1023.4
20181213040205 31 106 0.0 0.0 0.00 0.00 0.00 82 1023.3
20181213035705 31 106 0.0 1.0 0.00 0.00 0.00 83 1023.4
20181213035204 30 106 2.0 3.0 0.00 0.00 0.00 85 1023.2
20181213034705 29 105 0.0 0.0 0.00 0.00 0.00 85 1023.3
20181213034205 29 105 0.0 0.0 0.00 0.00 0.00 85 1023.2
20181213033707 29 105 0.0 0.0 0.00 0.00 0.00 85 1023.2
20181213033205 29 105 0.0 0.0 0.00 0.00 0.00 85 1023.3
20181213032705 30 105 0.0 0.0 0.00 0.00 0.00 83 1023.3
20181213032205 30 105 0.0 0.0 0.00 0.00 0.00 82 1023.3
20181213031704 30 105 0.0 0.0 0.00 0.00 0.00 83 1023.3
20181213031205 30 105 0.0 0.0 0.00 0.00 0.00 83 1023.1
20181213030704 30 105 0.0 0.0 0.00 0.00 0.00 83 1023.0
20181213030205 30 105 0.0 0.0 0.00 0.00 0.00 85 1022.9
20181213025705 29 105 0.0 1.0 0.00 0.00 0.00 84 1023.0
20181213025204 30 105 1.0 3.0 0.00 0.00 0.00 83 1022.9
20181213024705 30 136 1.0 2.0 0.00 0.00 0.00 83 1022.6
20181213024206 31 227 0.0 2.0 0.00 0.00 0.00 82 1022.8
20181213023704 30 228 1.0 3.0 0.00 0.00 0.00 85 1022.9
20181213023204 29 230 2.0 3.0 0.00 0.00 0.00 84 1023.0
20181213022705 29 231 1.0 2.0 0.00 0.00 0.00 84 1022.8
20181213022205 29 231 2.0 3.0 0.00 0.00 0.00 85 1022.8
20181213021705 28 231 1.0 3.0 0.00 0.00 0.00 84 1022.6
20181213021205 28 231 0.0 1.0 0.00 0.00 0.00 83 1022.3
20181213020705 29 231 0.0 2.0 0.00 0.00 0.00 81 1022.2
20181213020205 30 231 0.0 2.0 0.00 0.00 0.00 81 1022.2
20181213015705 30 231 1.0 2.0 0.00 0.00 0.00 82 1022.3
20181213015204 30 231 0.0 1.0 0.00 0.00 0.00 81 1022.4
20181213014705 30 231 1.0 1.0 0.00 0.00 0.00 82 1022.3
20181213014204 29 231 2.0 2.0 0.00 0.00 0.00 82 1022.3
20181213013704 30 231 0.0 0.0 0.00 0.00 0.00 82 1022.5
20181213013205 29 231 0.0 0.0 0.00 0.00 0.00 83 1022.7
20181213012705 28 231 1.0 1.0 0.00 0.00 0.00 83 1022.7
20181213012204 28 231 0.0 0.0 0.00 0.00 0.00 82 1022.6
20181213011705 29 231 0.0 0.0 0.00 0.00 0.00 81 1022.5
20181213011205 29 231 0.0 0.0 0.00 0.00 0.00 82 1022.4
20181213010705 29 231 0.0 0.0 0.00 0.00 0.00 82 1022.4
20181213010205 29 231 0.0 0.0 0.00 0.00 0.00 80 1022.5
20181213005705 30 231 0.0 0.0 0.00 0.00 0.00 80 1022.5
20181213005204 30 231 0.0 0.0 0.00 0.00 0.00 81 1022.5
20181213004705 30 231 0.0 0.0 0.00 0.00 0.00 81 1022.6
20181213004205 30 231 0.0 0.0 0.00 0.00 0.00 80 1022.5
20181213003705 30 231 0.0 1.0 0.00 0.00 0.00 79 1022.6
20181213003205 31 231 1.0 3.0 0.00 0.00 0.00 77 1022.5
20181213002705 31 231 1.0 2.0 0.00 0.00 0.00 79 1022.4
20181213002205 30 231 0.0 0.0 0.00 0.00 0.00 81 1022.4
20181213001705 30 231 0.0 0.0 0.00 0.00 0.00 80 1022.4
20181213001204 31 231 0.0 0.0 0.00 0.00 0.00 80 1022.3
20181213000705 30 231 0.0 0.0 0.00 0.00 0.00 81 1022.2
20181213000205 30 231 0.0 0.0 0.00 0.00 0.00 80 1022.1
20181212235705 31 231 0.0 0.0 0.00 0.00 0.00 78 1022.1
20181212235205 32 231 1.0 2.0 0.00 0.00 0.00 77 1022.1
20181212234705 33 231 1.0 2.0 0.00 0.00 0.00 76 1022.1
20181212234205 33 231 0.0 1.0 0.00 0.00 0.00 74 1022.0
20181212233705 34 231 1.0 2.0 0.00 0.00 0.00 72 1021.9
20181212233205 34 232 1.0 2.0 0.00 0.00 0.00 72 1021.9
20181212232704 34 232 0.0 2.0 0.00 0.00 0.00 72 1021.8
20181212232205 34 232 0.0 0.0 0.00 0.00 0.00 72 1022.0
20181212231704 34 232 0.0 0.0 0.00 0.00 0.00 72 1022.1
20181212231205 34 232 0.0 0.0 0.00 0.00 0.00 72 1022.0
20181212230705 34 232 0.0 0.0 0.00 0.00 0.00 72 1022.0
20181212230204 34 232 0.0 0.0 0.00 0.00 0.00 72 1022.0
20181212225707 34 232 0.0 0.0 0.00 0.00 0.00 73 1022.0
20181212225212 34 232 0.0 0.0 0.00 0.00 0.00 74 1022.1
20181212224706 34 232 1.0 2.0 0.00 0.00 0.00 72 1022.1
20181212223708 34 232 2.0 3.0 0.00 0.00 0.00 72 1022.1
20181212223205 34 232 2.0 3.0 0.00 0.00 0.00 73 1021.9
20181212222705 34 232 2.0 3.0 0.00 0.00 0.00 73 1021.9
20181212222206 34 230 2.0 3.0 0.00 0.00 0.00 72 1021.8
20181212221705 34 230 2.0 3.0 0.00 0.00 0.00 72 1021.7
20181212221207 34 229 2.0 3.0 0.00 0.00 0.00 72 1021.5
20181212220707 34 229 3.0 5.0 0.00 0.00 0.00 72 1021.6
20181212220205 35 254 0.0 3.0 0.00 0.00 0.00 71 1021.4
20181212215705 35 254 0.0 1.0 0.00 0.00 0.00 71 1021.2
20181212215205 35 254 1.0 2.0 0.00 0.00 0.00 69 1020.8
20181212214705 35 254 2.0 3.0 0.00 0.00 0.00 69 1020.6
20181212214205 36 253 0.0 3.0 0.00 0.00 0.00 67 1021.0
20181212213706 36 253 0.0 2.0 0.00 0.00 0.00 67 1021.3
20181212213205 36 253 1.0 2.0 0.00 0.00 0.00 67 1021.4
20181212212706 37 253 2.0 3.0 0.00 0.00 0.00 65 1021.3
20181212212205 37 253 2.0 3.0 0.00 0.00 0.00 64 1021.4
20181212211705 37 17 1.0 2.0 0.00 0.00 0.00 63 1021.2
20181212211206 37 18 0.0 1.0 0.00 0.00 0.00 63 1021.0
20181212210708 37 18 0.0 0.0 0.00 0.00 0.00 63 1021.0
20181212210206 38 18 0.0 0.0 0.00 0.00 0.00 62 1021.0
20181212205705 38 18 0.0 0.0 0.00 0.00 0.00 62 1020.9
20181212205205 39 18 1.0 3.0 0.00 0.00 0.00 60 1020.8
20181212204705 39 5 0.0 2.0 0.00 0.00 0.00 59 1020.6
20181212204207 39 5 1.0 2.0 0.00 0.00 0.00 59 1020.4
20181212203705 39 10 2.0 3.0 0.00 0.00 0.00 59 1020.4
20181212203205 39 30 2.0 3.0 0.00 0.00 0.00 59 1020.3
20181212202705 40 333 2.0 3.0 0.00 0.00 0.00 58 1020.4
20181212202206 40 0 2.0 3.0 0.00 0.00 0.00 59 1020.4
20181212201705 40 328 2.0 3.0 0.00 0.00 0.00 58 1020.5
20181212201207 40 326 2.0 3.0 0.00 0.00 0.00 59 1020.4
20181212200707 40 311 1.0 3.0 0.00 0.00 0.00 59 1020.4
20181212200205 40 44 2.0 3.0 0.00 0.00 0.00 57 1020.4
20181212195705 40 14 1.0 2.0 0.00 0.00 0.00 57 1020.2
20181212195206 40 359 2.0 3.0 0.00 0.00 0.00 58 1020.3
20181212194705 41 271 2.0 5.0 0.00 0.00 0.00 56 1020.3
20181212194207 42 341 3.0 7.0 0.00 0.00 0.00 57 1020.2
20181212193706 42 0 3.0 8.0 0.00 0.00 0.00 58 1020.1
20181212193206 42 36 3.0 7.0 0.00 0.00 0.00 58 1020.2
20181212192706 42 319 5.0 8.0 0.00 0.00 0.00 57 1020.2
20181212192205 42 298 4.0 8.0 0.00 0.00 0.00 58 1020.3
20181212191705 42 353 3.0 6.0 0.00 0.00 0.00 58 1020.3
20181212191207 41 266 4.0 6.0 0.00 0.00 0.00 58 1020.4
20181212190708 42 311 2.0 6.0 0.00 0.00 0.00 58 1020.2
20181212190205 41 287 3.0 3.0 0.00 0.00 0.00 59 1020.3
20181212185705 41 275 5.0 10.0 0.00 0.00 0.00 59 1020.4
20181212185205 41 288 4.0 7.0 0.00 0.00 0.00 58 1020.3
20181212184706 41 284 2.0 5.0 0.00 0.00 0.00 60 1020.3
20181212184205 41 251 3.0 6.0 0.00 0.00 0.00 59 1020.4
20181212183708 42 279 2.0 3.0 0.00 0.00 0.00 57 1020.3
20181212183206 42 346 3.0 5.0 0.00 0.00 0.00 58 1020.4
20181212182706 42 296 5.0 9.0 0.00 0.00 0.00 57 1020.7
20181212182205 43 269 4.0 7.0 0.00 0.00 0.00 58 1020.8
20181212181705 42 290 4.0 8.0 0.00 0.00 0.00 59 1020.9
20181212181207 41 318 5.0 10.0 0.00 0.00 0.00 58 1020.8
20181212180707 41 303 5.0 10.0 0.00 0.00 0.00 56 1020.7
20181212180205 41 314 3.0 6.0 0.00 0.00 0.00 58 1020.7
20181212175705 41 15 3.0 6.0 0.00 0.00 0.00 60 1020.7
20181212175205 41 10 4.0 7.0 0.00 0.00 0.00 59 1020.8
20181212174706 41 3 5.0 9.0 0.00 0.00 0.00 57 1020.7
20181212174206 41 352 3.0 6.0 0.00 0.00 0.00 57 1020.8
20181212173707 41 341 4.0 7.0 0.00 0.00 0.00 58 1020.9
20181212173205 41 317 5.0 9.0 0.00 0.00 0.00 57 1020.9
20181212172706 42 354 4.0 7.0 0.00 0.00 0.00 58 1020.9
20181212172205 41 337 4.0 9.0 0.00 0.00 0.00 58 1021.1
20181212171705 41 337 4.0 8.0 0.00 0.00 0.00 58 1021.0
20181212171207 42 289 4.0 8.0 0.00 0.00 0.00 57 1021.1
20181212170708 41 314 3.0 6.0 0.00 0.00 0.00 58 1021.0
20181212170206 41 352 5.0 9.0 0.00 0.00 0.00 58 1021.0
20181212165706 41 7 5.0 12.0 0.00 0.00 0.00 58 1021.1
20181212165206 41 353 7.0 12.0 0.00 0.00 0.00 59 1021.0
20181212164706 41 356 3.0 7.0 0.00 0.00 0.00 61 1021.0
20181212164208 41 297 5.0 8.0 0.00 0.00 0.00 62 1021.0
20181212163705 40 299 3.0 5.0 0.00 0.00 0.00 61 1021.2
20181212163206 40 295 3.0 8.0 0.00 0.00 0.00 59 1021.3
20181212162705 40 323 3.0 5.0 0.00 0.00 0.00 61 1021.2
20181212162205 40 339 4.0 6.0 0.00 0.00 0.00 60 1021.2
20181212161705 40 281 6.0 10.0 0.00 0.00 0.00 63 1021.3
20181212161208 40 332 5.0 8.0 0.00 0.00 0.00 63 1021.4
20181212160708 40 297 5.0 8.0 0.00 0.00 0.00 63 1021.4
20181212160205 40 280 5.0 8.0 0.00 0.00 0.00 63 1021.3
20181212155706 39 289 2.0 6.0 0.00 0.00 0.00 62 1021.4
20181212155205 39 315 5.0 9.0 0.00 0.00 0.00 63 1021.4
20181212154705 39 322 6.0 10.0 0.00 0.00 0.00 63 1021.4
20181212154205 39 292 5.0 9.0 0.00 0.00 0.00 65 1021.6
20181212153707 39 295 4.0 9.0 0.00 0.00 0.00 65 1021.5
20181212153205 39 271 7.0 12.0 0.00 0.00 0.00 66 1021.7
20181212152705 39 253 6.0 9.0 0.00 0.00 0.00 66 1021.8
20181212152206 38 317 7.0 12.0 0.00 0.00 0.00 67 1021.8
20181212151705 38 263 9.0 13.0 0.00 0.00 0.00 66 1021.7
20181212151207 38 308 5.0 10.0 0.00 0.00 0.00 67 1021.7
20181212150708 38 292 6.0 12.0 0.00 0.00 0.00 67 1021.7
20181212150206 38 313 5.0 9.0 0.00 0.00 0.00 66 1021.6
20181212145705 37 297 5.0 12.0 0.00 0.00 0.00 68 1021.6
20181212145205 37 274 5.0 12.0 0.00 0.00 0.00 68 1021.7
20181212144705 37 292 6.0 12.0 0.00 0.00 0.00 69 1021.5
20181212144205 37 288 9.0 13.0 0.00 0.00 0.00 69 1021.4
20181212143706 37 305 3.0 12.0 0.00 0.00 0.00 69 1021.4
20181212143219 35 310 1.0 10.0 0.00 0.00 0.00 73 1020.9
20181212135206 35 298 5.0 8.0 0.00 0.00 0.00 74 1020.9
20181212134734 34 279 3.0 8.0 0.00 0.00 0.00 75 1020.9
20181212134208 34 299 4.0 6.0 0.00 0.00 0.00 74 1020.8
20181212133705 34 310 2.0 6.0 0.00 0.00 0.00 75 1020.8
20181212133206 34 305 5.0 10.0 0.00 0.00 0.00 76 1020.7
20181212132706 33 313 5.0 8.0 0.00 0.00 0.00 76 1020.7
20181212132205 33 297 5.0 12.0 0.00 0.00 0.00 76 1020.6
20181212131706 33 300 3.0 9.0 0.00 0.00 0.00 77 1020.5
20181212131207 33 315 3.0 7.0 0.00 0.00 0.00 77 1020.4
20181212130707 32 290 3.0 6.0 0.00 0.00 0.00 78 1020.5
20181212130205 32 292 3.0 7.0 0.00 0.00 0.00 79 1020.4
20181212125705 31 287 5.0 9.0 0.00 0.00 0.00 80 1020.5
20181212125205 31 280 5.0 8.0 0.00 0.00 0.00 81 1020.4
20181212124705 30 281 5.0 9.0 0.00 0.00 0.00 82 1020.3
20181212124205 30 286 5.0 8.0 0.00 0.00 0.00 82 1020.3
20181212123707 30 276 5.0 8.0 0.00 0.00 0.00 81 1020.3
20181212123205 30 273 6.0 8.0 0.00 0.00 0.00 81 1020.2
20181212122705 31 256 5.0 10.0 0.00 0.00 0.00 81 1020.1
20181212122205 30 262 6.0 10.0 0.00 0.00 0.00 81 1020.1
20181212121705 31 270 5.0 10.0 0.00 0.00 0.00 80 1019.9
20181212121207 31 278 6.0 10.0 0.00 0.00 0.00 80 1019.8
20181212120705 31 282 7.0 12.0 0.00 0.00 0.00 81 1019.7
20181212120207 30 275 7.0 12.0 0.00 0.00 0.00 82 1019.6
20181212115705 30 290 5.0 8.0 0.00 0.00 0.00 81 1019.6
20181212115205 30 272 7.0 12.0 0.00 0.00 0.00 81 1019.5
20181212114706 31 273 5.0 10.0 0.00 0.00 0.00 81 1019.5
20181212114205 31 276 7.0 13.0 0.00 0.00 0.00 81 1019.5
20181212113706 30 280 7.0 10.0 0.00 0.00 0.00 82 1019.4
20181212113208 30 278 5.0 12.0 0.00 0.00 0.00 82 1019.3
20181212112705 30 284 6.0 10.0 0.00 0.00 0.00 82 1019.3
20181212112206 30 280 5.0 8.0 0.00 0.00 0.00 82 1019.3
20181212111705 29 278 3.0 8.0 0.00 0.00 0.00 82 1019.3
20181212111205 29 280 4.0 7.0 0.00 0.00 0.00 82 1019.2
20181212110707 29 284 5.0 6.0 0.00 0.00 0.00 82 1019.1
20181212110206 29 284 4.0 7.0 0.00 0.00 0.00 82 1019.0
20181212105705 29 272 4.0 6.0 0.00 0.00 0.00 82 1018.9
20181212105205 29 279 5.0 7.0 0.00 0.00 0.00 82 1018.8
20181212104705 29 277 4.0 8.0 0.00 0.00 0.00 82 1018.7
20181212104206 29 276 3.0 3.0 0.00 0.00 0.00 82 1018.7
20181212103707 29 282 3.0 7.0 0.00 0.00 0.00 82 1018.6
20181212103206 29 287 4.0 6.0 0.00 0.00 0.00 82 1018.6
20181212102706 29 281 3.0 5.0 0.00 0.00 0.00 82 1018.5
20181212102206 29 291 2.0 3.0 0.00 0.00 0.00 82 1018.5
20181212101705 29 284 2.0 6.0 0.00 0.00 0.00 82 1018.5
20181212101206 29 287 3.0 5.0 0.00 0.00 0.00 82 1018.5
20181212100707 29 297 3.0 7.0 0.00 0.00 0.00 82 1018.6
20181212100205 29 281 2.0 6.0 0.00 0.00 0.00 81 1018.6
20181212095705 29 291 2.0 5.0 0.00 0.00 0.00 81 1018.5
20181212095205 30 292 2.0 3.0 0.00 0.00 0.00 81 1018.4
20181212094705 30 321 2.0 3.0 0.00 0.00 0.00 81 1018.3
20181212094207 30 298 2.0 3.0 0.00 0.00 0.00 81 1018.2
20181212093706 30 276 3.0 5.0 0.00 0.00 0.00 80 1018.1
20181212093205 30 295 2.0 3.0 0.00 0.00 0.00 81 1018.1
20181212092706 30 310 3.0 8.0 0.00 0.00 0.00 80 1018.1
20181212092205 30 306 2.0 3.0 0.00 0.00 0.00 80 1018.0
20181212091706 30 302 3.0 7.0 0.00 0.00 0.00 80 1017.9
20181212091208 30 303 4.0 8.0 0.00 0.00 0.00 79 1017.8
20181212090707 30 307 4.0 10.0 0.00 0.00 0.00 80 1017.8
20181212090205 30 293 3.0 8.0 0.00 0.00 0.00 80 1017.7
20181212085706 30 294 2.0 3.0 0.00 0.00 0.00 80 1017.8
20181212085205 30 291 3.0 6.0 0.00 0.00 0.00 79 1017.8
20181212084707 30 285 3.0 8.0 0.00 0.00 0.00 79 1017.7
20181212084206 30 282 2.0 3.0 0.00 0.00 0.00 78 1017.6
20181212083706 31 289 3.0 5.0 0.00 0.00 0.00 77 1017.7
20181212083205 32 305 2.0 5.0 0.00 0.00 0.00 75 1017.7
20181212082705 32 347 2.0 6.0 0.00 0.00 0.00 75 1017.7
20181212082207 32 310 2.0 5.0 0.00 0.00 0.00 74 1017.6
20181212081708 32 317 2.0 5.0 0.00 0.00 0.00 75 1017.5
20181212081206 33 299 3.0 6.0 0.00 0.00 0.00 75 1017.4
20181212080705 33 288 5.0 9.0 0.00 0.00 0.00 74 1017.3
20181212080205 33 275 3.0 7.0 0.00 0.00 0.00 74 1017.2
20181212075705 33 290 3.0 8.0 0.00 0.00 0.00 74 1017.3
20181212075205 33 309 3.0 7.0 0.00 0.00 0.00 74 1017.2
20181212074706 33 298 3.0 8.0 0.00 0.00 0.00 73 1017.1
20181212074205 33 307 3.0 8.0 0.00 0.00 0.00 72 1017.1
20181212073705 33 307 3.0 7.0 0.00 0.00 0.00 72 1017.0
20181212073205 33 320 3.0 5.0 0.00 0.00 0.00 73 1017.0
20181212072705 33 313 2.0 5.0 0.00 0.00 0.00 73 1016.8
20181212072205 33 319 1.0 3.0 0.00 0.00 0.00 75 1016.9
20181212071705 32 292 2.0 5.0 0.00 0.00 0.00 76 1016.7
20181212071205 32 309 2.0 6.0 0.00 0.00 0.00 76 1016.7
20181212070705 32 295 3.0 6.0 0.00 0.00 0.00 77 1016.7
20181212070205 32 277 2.0 3.0 0.00 0.00 0.00 77 1016.6
20181212065705 32 282 1.0 3.0 0.00 0.00 0.00 77 1016.6